Vertical_Velocity
-3 -1 -2 -2 -0 -3 1 -5 -6 8 4 -9 -5 -6 4 3 0 -1 2 1 1 -0 -1 -1 -1 -1 -0 -0 1 -1 -2 -2 -1 1 4 2 2 -0 0 2 -2 -2 2 1
-2 -2 -1 1 -1 -2 -2 -1 -1 -4 5 -1 -13 4 3 1 -0 0 1 0 -0 0 1 2 1 1 -0 -2 -2 -1 -2 -1 -0 -1 1 -2 -0 1 -2 -1 1 1 -1 -1
2 -2 -1 3 -2 -3 1 0 -3 2 -2 -3 2 2 -2 -2 -0 -0 -0 0 0 1 0 -1 -1 -1 -1 -1 -0 0 1 1 -1 -3 -4 -3 -2 -1 -2 -0 0 -2 1 0
2 -3 -2 -2 -2 -3 -1 1 1 1 1 -1 1 -2 -2 -4 -2 -1 -0 -0 -1 0 0 1 1 -1 -0 2 0 1 -0 -0 -0 -0 -2 -2 -3 -3 -3 -1 -1 0 -0 2
-4 -1 -3 -1 2 -1 -1 -3 -1 -1 2 1 -1 -2 2 0 0 -0 -0 0 0 0 2 1 0 -1 -1 -0 -1 -2 -2 -1 1 0 -0 -0 0 -1 -1 -0 2 0 -1 -3
0 -1 -5 6 1 -1 -1 -1 4 -1 -0 0 1 1 3 1 1 -1 -0 1 -2 -1 1 1 1 0 1 0 -1 -1 0 -1 0 1 -0 -0 -0 -0 0 1 1 0 0 0
-1 -4 2 -1 -3 -3 -0 0 0 1 2 1 1 0 -2 -3 -1 1 1 -1 -3 -2 -1 -1 -1 -3 -1 -0 0 0 -1 1 0 1 -0 1 1 2 0 1 2 -1 2 -3
2 1 1 4 2 1 -2 -3 -4 -2 -3 -0 1 1 1 2 1 -0 -1 -3 -1 -3 -2 -0 1 3 3 1 0 -0 0 2 -0 -1 0 2 2 -2 0 2 3 -1 4 3
-1 -6 -1 -0 0 -0 0 2 1 0 1 -1 -2 -1 -0 -1 1 3 3 1 1 1 -4 -4 -7 2 -1 -2 -1 -0 -2 -2 -1 -3 -1 -0 1 1 -0 1 4 -0 1 4
-6 3 -2 -3 1 1 1 -1 -2 0 2 3 2 1 -2 -1 -2 -3 -0 -0 -1 -2 0 -1 -1 -3 4 -1 -1 -1 -2 -0 -1 0 -1 -2 -1 1 0 -2 0 1 0 3
2 2 -5 6 -1 -2 0 2 1 0 -1 1 1 2 -0 1 -1 -1 -2 -1 3 4 3 2 1 -4 -1 -1 0 1 0 1 1 -1 1 1 -2 0 3 -1 3 -0 -2 -1
-1 -3 -5 -1 -1 3 -1 -2 -1 2 1 0 -2 -1 1 1 1 -1 -3 0 0 -2 0 -1 -0 -2 1 -1 1 1 2 -1 -2 1 -2 -3 2 -3 -9 1 -4 0 1 1
-0 -1 -1 3 -4 -3 2 0 -1 -1 -0 1 1 -0 3 -1 -2 -2 -2 -1 -1 -1 -5 -2 0 -0 0 -1 -2 -4 -2 -2 1 -3 -1 0 -2 -0 5 -15 1 -0 -1 -3
-2 -1 -0 1 -0 -3 -0 1 -2 -1 -2 -2 -1 1 2 3 0 0 -1 -1 0 0 -1 -2 -3 -1 0 0 1 -0 -0 -2 -1 3 -0 0 -1 1 -0 4 1 -9 -9 5
-4 1 2 1 -3 -0 -2 1 2 2 2 0 0 1 0 3 2 2 -2 -3 3 3 -0 -3 -1 1 -1 -3 -2 1 -2 -1 -3 -3 -3 -3 -2 -3 -2 -2 -1 4 1 -4
0 -2 -0 1 4 1 -2 -0 -1 -2 -3 -3 -2 -3 -1 -1 2 2 0 -4 -0 4 -2 -6 -1 -3 -0 -3 -4 -2 -3 -5 -7 -3 -1 -2 -3 -4 -1 -2 -1 -2 2 4
-0 -1 -2 -5 -1 2 -1 0 3 1 -1 -0 -1 -2 -1 -1 1 -2 -1 -5 -2 1 -3 -8 1 -2 -2 -6 -7 -4 -4 -2 -6 -5 -4 -4 -3 -2 -2 -3 -1 -1 3 2
-1 2 4 -3 -1 3 -1 -0 -1 -1 2 3 -2 -1 -0 1 -1 1 -1 -2 -2 -0 -4 -8 -5 -4 -5 -8 -9 -5 -4 -3 -0 -3 -3 -0 -1 -3 -1 -2 -0 -1 5 4
-2 1 3 1 0 0 1 -1 -4 -2 0 -5 -1 1 -1 1 -2 -2 -4 -2 1 -5 5 -5 -5 -6 -7 -5 -12 -6 -6 -4 -2 -2 -5 -3 -0 0 -1 -2 -2 -0 1 3
-5 -2 -1 -4 -4 -1 4 -0 -1 2 1 -4 -1 1 -1 3 -0 0 -2 1 9 -11 -5 3 -2 -0 -5 -4 -4 -4 -4 -4 -4 -3 -2 -3 -4 -3 -3 -1 -1 -1 -1 1
-4 -1 -0 -1 2 0 -1 -1 -2 -1 1 -1 -3 -2 -3 4 2 -3 -1 -11 22 -9 -9 -4 -3 -3 -4 -3 -0 -3 -3 -3 -3 -3 -0 -1 -2 -2 -3 -3 -1 0 2 1
2 1 2 0 -1 4 -1 1 -4 -6 -3 -0 -2 -3 -6 -2 -3 -2 1 -13 6 3 -6 1 1 -2 -3 -3 -2 -3 -2 -3 -2 -1 -2 -4 -3 -4 -2 -3 -3 -1 -0 1
1 -2 0 -1 -3 -1 5 3 -3 -7 -1 1 1 2 -2 -3 0 -2 6 11 -7 4 -3 1 -1 -1 -2 -0 0 -1 -1 -1 0 -2 -2 -3 -3 -2 -2 -1 -1 -1 -0 -1
-5 -2 -1 1 -4 -3 -7 9 -12 -0 -7 -2 -1 -3 -4 -4 3 1 -3 2 -5 -4 1 -0 1 -0 -2 1 1 1 0 -1 -3 -1 -1 -1 -1 -1 -0 0 1 0 1 2
-0 0 -1 -4 -7 -3 -6 -4 -7 -3 -6 -4 -1 -2 -2 -2 -13 7 -3 -1 0 -3 0 5 4 0 -1 0 0 -0 -3 -3 -2 -3 -1 0 0 -0 0 -0 0 1 0 1
-8 -4 -4 -5 -2 -2 -7 -8 -13 -1 -5 -2 2 -0 3 2 -2 -3 -1 -1 0 3 -0 1 1 2 3 1 -1 -2 -1 1 -0 -1 -1 -1 -2 -1 -0 0 0 -0 -0 0
-1 -1 -5 -3 8 -3 -4 -6 -5 -4 -0 -3 -4 1 -4 -1 -1 -4 -1 1 -2 0 2 4 4 -0 -1 1 1 -1 -2 -1 -1 -1 -0 -1 -2 -0 1 3 2 -0 3 1
Height
5732 5733 5734 5735 5736 5736 5737 5737 5737 5741 5740 5734 5733 5734 5736 5735 5733 5730 5730 5729 5729 5728 5726 5725 5724 5722 5720 5717 5714 5712 5709 5707 5704 5700 5699 5699 5699 5699 5698 5697 5696 5697 5697 5697
5727 5728 5728 5729 5728 5728 5729 5729 5729 5728 5731 5726 5724 5726 5727 5725 5725 5724 5723 5722 5721 5720 5718 5717 5716 5714 5711 5709 5707 5705 5702 5699 5695 5691 5689 5689 5689 5689 5689 5688 5688 5689 5688 5688
5724 5722 5723 5725 5723 5721 5722 5721 5720 5721 5721 5719 5719 5719 5717 5717 5717 5716 5715 5714 5712 5711 5710 5709 5707 5706 5702 5701 5699 5697 5694 5691 5687 5684 5679 5679 5680 5680 5679 5679 5678 5678 5678 5679
5719 5718 5719 5719 5719 5718 5717 5716 5716 5715 5715 5713 5713 5711 5711 5710 5709 5708 5707 5706 5704 5703 5701 5700 5699 5697 5695 5693 5691 5689 5685 5682 5679 5677 5673 5671 5670 5670 5669 5668 5666 5666 5666 5667
5715 5714 5713 5712 5712 5712 5711 5711 5710 5709 5709 5707 5705 5704 5703 5701 5700 5699 5698 5697 5695 5694 5693 5691 5690 5688 5685 5682 5680 5678 5676 5673 5670 5668 5666 5664 5662 5660 5659 5657 5655 5656 5657 5657
5708 5708 5707 5708 5706 5704 5703 5703 5702 5701 5700 5698 5697 5695 5695 5693 5692 5690 5689 5688 5686 5683 5682 5681 5680 5678 5675 5673 5671 5668 5665 5663 5660 5659 5657 5655 5653 5651 5649 5648 5646 5645 5645 5645
5697 5696 5699 5698 5697 5696 5696 5699 5694 5693 5691 5688 5687 5686 5682 5681 5680 5678 5676 5675 5674 5673 5671 5669 5668 5666 5664 5662 5659 5658 5656 5653 5651 5649 5647 5645 5643 5640 5638 5637 5636 5634 5634 5633
5688 5687 5687 5687 5686 5686 5685 5683 5683 5682 5680 5679 5677 5674 5673 5671 5668 5666 5665 5663 5662 5660 5657 5656 5655 5655 5652 5650 5648 5646 5644 5643 5640 5638 5636 5634 5632 5630 5627 5626 5624 5622 5621 5620
5682 5679 5676 5674 5674 5674 5673 5670 5669 5669 5668 5666 5664 5662 5660 5657 5656 5654 5652 5650 5649 5648 5645 5642 5640 5639 5639 5637 5636 5633 5631 5629 5628 5625 5623 5621 5620 5618 5616 5613 5611 5609 5607 5606
5669 5669 5665 5663 5661 5660 5659 5659 5658 5656 5654 5653 5651 5650 5648 5646 5643 5641 5639 5637 5635 5633 5631 5629 5627 5624 5624 5624 5622 5619 5617 5615 5613 5611 5608 5606 5604 5603 5601 5599 5597 5595 5594 5591
5657 5656 5653 5652 5650 5647 5644 5642 5641 5641 5641 5638 5636 5634 5632 5630 5629 5627 5626 5623 5621 5620 5617 5615 5613 5610 5607 5605 5604 5603 5601 5599 5597 5595 5593 5591 5588 5585 5583 5581 5580 5578 5576 5574
5644 5643 5640 5638 5634 5632 5631 5629 5626 5625 5624 5623 5621 5618 5616 5614 5612 5610 5609 5607 5606 5603 5601 5599 5596 5594 5592 5589 5586 5584 5582 5580 5578 5576 5574 5572 5570 5567 5564 5563 5561 5559 5556 5554
5628 5627 5625 5623 5621 5619 5616 5614 5612 5610 5608 5606 5604 5602 5600 5598 5595 5593 5592 5591 5589 5586 5584 5582 5579 5576 5574 5571 5569 5566 5564 5561 5559 5556 5554 5551 5549 5547 5545 5541 5540 5538 5535 5533
5613 5611 5609 5606 5604 5601 5600 5598 5596 5594 5592 5590 5587 5585 5583 5580 5578 5576 5574 5573 5571 5568 5565 5564 5563 5559 5556 5553 5551 5548 5546 5542 5540 5537 5534 5530 5527 5524 5522 5519 5516 5512 5510 5509
5597 5594 5592 5590 5589 5586 5583 5581 5579 5577 5575 5573 5571 5568 5566 5563 5561 5558 5554 5553 5552 5549 5545 5543 5541 5539 5536 5533 5531 5529 5526 5522 5519 5515 5511 5507 5504 5501 5498 5495 5492 5490 5486 5483
5579 5577 5576 5573 5570 5569 5566 5564 5562 5560 5557 5555 5552 5550 5548 5546 5544 5540 5536 5533 5533 5530 5525 5521 5520 5517 5514 5512 5510 5508 5505 5500 5496 5493 5488 5484 5480 5477 5474 5470 5468 5465 5464 5460
5563 5560 5557 5555 5554 5552 5550 5547 5544 5541 5539 5537 5534 5532 5530 5526 5524 5521 5517 5513 5512 5509 5505 5501 5500 5497 5493 5489 5488 5486 5482 5477 5471 5468 5463 5458 5454 5451 5449 5446 5443 5441 5439 5435
5543 5541 5540 5538 5536 5533 5530 5528 5526 5523 5521 5518 5515 5513 5511 5508 5506 5503 5499 5496 5495 5492 5485 5481 5478 5475 5471 5466 5463 5460 5455 5450 5445 5440 5437 5433 5429 5425 5422 5419 5417 5415 5414 5411
5525 5524 5521 5519 5518 5516 5513 5510 5507 5505 5501 5498 5497 5495 5493 5490 5486 5484 5480 5478 5475 5471 5467 5463 5458 5454 5449 5444 5440 5437 5432 5427 5422 5417 5412 5408 5405 5401 5398 5394 5392 5391 5389 5388
5509 5507 5505 5503 5502 5500 5497 5493 5491 5490 5486 5482 5479 5477 5475 5473 5467 5464 5461 5460 5455 5446 5445 5443 5436 5431 5426 5422 5416 5412 5408 5404 5400 5396 5391 5386 5382 5379 5376 5372 5368 5367 5365 5364
5494 5493 5491 5490 5488 5485 5481 5477 5475 5473 5470 5465 5461 5459 5455 5454 5448 5444 5441 5439 5437 5425 5424 5421 5414 5410 5405 5400 5396 5392 5388 5383 5379 5375 5371 5365 5361 5356 5352 5348 5346 5343 5342 5341
5481 5479 5478 5475 5473 5471 5466 5461 5456 5453 5450 5447 5443 5439 5435 5434 5429 5425 5419 5414 5414 5405 5403 5400 5395 5389 5385 5381 5377 5373 5369 5365 5361 5357 5352 5347 5342 5338 5334 5330 5326 5324 5322 5321
5467 5465 5463 5460 5457 5454 5449 5443 5438 5433 5432 5428 5424 5419 5414 5411 5407 5402 5400 5394 5391 5387 5383 5381 5376 5371 5367 5364 5361 5357 5353 5349 5345 5341 5336 5331 5325 5321 5316 5313 5309 5306 5305 5304
5455 5452 5449 5445 5440 5435 5431 5427 5420 5416 5412 5408 5402 5396 5391 5388 5387 5381 5376 5372 5371 5369 5365 5362 5358 5355 5351 5349 5345 5342 5338 5334 5330 5326 5322 5317 5312 5308 5305 5301 5298 5295 5293 5291
5441 5438 5434 5430 5425 5420 5413 5407 5403 5399 5393 5388 5383 5377 5372 5368 5363 5362 5358 5354 5351 5350 5350 5346 5342 5339 5337 5334 5331 5327 5324 5321 5317 5313 5310 5306 5303 5300 5297 5294 5291 5287 5285 5282
5426 5423 5419 5414 5408 5402 5395 5389 5384 5381 5374 5369 5364 5361 5357 5352 5348 5343 5341 5340 5337 5335 5333 5331 5328 5325 5323 5320 5317 5315 5311 5308 5304 5301 5299 5298 5296 5294 5291 5288 5284 5281 5278 5276
5412 5407 5402 5398 5393 5384 5378 5372 5366 5362 5357 5351 5346 5345 5341 5337 5333 5330 5326 5324 5322 5319 5317 5315 5312 5310 5309 5307 5304 5302 5299 5296 5293 5292 5292 5291 5289 5287 5284 5281 5278 5275 5273 5270